Regional Weather Roundup
Issued by NWS Burlington, VT

Current Version | Previous Version | Text Only | Print | Product List | Glossary Off
Versions: 1 2 3 4 5 6 7 8 9 10 11 12 13 14 15 16 17 18 19 20 21 22 23 24 25 26 27 28 29 30 31 32 33 34 35 36 37 38 39 40 41 42 43 44 45 46 47 48 49 50
000 ASUS41 KBTV 211330 RWRBTV VERMONT REGIONAL WEATHER ROUNDUP NATIONAL WEATHER SERVICE BURLINGTON VT 900 AM EDT SAT JUL 21 2018 NOTE: "FAIR" INDICATES FEW OR NO CLOUDS BELOW 12,000 FEET WITH NO SIGNIFICANT WEATHER AND/OR OBSTRUCTIONS TO VISIBILITY. * THESE REPORTS ARE NOT UNDER NWS QUALITY CONTROL AND/OR DO NOT REPORT WEATHER SUCH AS PRECIPITATION AND FOG. VTZ001>019-211400- _____VERMONT_____ CITY SKY/WX TMP DP RH WIND PRES REMARKS BURLINGTON FAIR 76 54 46 S10 30.12S MONTPELIER FAIR 67 59 75 CALM 30.20F MORRISVILLE FAIR 71 59 65 CALM 30.16F ST. JOHNSBURY* N/A 68 57 68 MISG 30.15F LYNDONVILLE* FAIR 68 55 63 CALM 30.20F MIDDLEBURY* FAIR 73 58 60 W5 30.14S RUTLAND* FAIR 68 60 75 CALM 30.16R SPRINGFIELD FAIR 67 61 81 CALM 30.17S HIGHGATE* FAIR 77 59 54 SW6 30.11F NEWPORT* FAIR 70 59 68 S5 30.17F BENNINGTON FAIR 71 57 61 E3 30.14F ISLAND POND* N/A 70 N/A N/A E2 N/A GALLUP MILLS* N/A 73 N/A N/A MISG N/A UNION VILLAGE* N/A 70 N/A N/A MISG N/A MT. MANSFIELD* N/A 64 N/A N/A SE10 N/A _____LAKE CHAMPLAIN_____ CITY SKY/WX TMP DP RH WIND PRES REMARKS BURTON ISLAND* N/A 73 59 60 S10G18 N/A COLCHESTER RF* N/A 70 59 68 S17 N/A DIAMOND ISL* N/A 72 59 64 S8 N/A $$ NYZ007-026>031-035-052-083-087-211400- _____NORTHERN NEW YORK_____ CITY SKY/WX TMP DP RH WIND PRES REMARKS PLATTSBURGH FAIR 74 59 59 S10 30.11S SARANAC LAKE FAIR 71 55 56 E6 30.13S MASSENA FAIR 76 63 64 VRB3 30.09S OGDENSBURG* FAIR 76 57 50 SE3 30.07S POTSDAM* SUNNY 75 57 53 S8 30.08S STARK FALLS* N/A 72 N/A N/A SE12 N/A WATERTOWN FAIR 72 56 57 SE9 30.04S FT DRUM FAIR 71 57 61 SE16 30.05F ALBANY PTSUNNY 72 58 61 VRB6 30.13R GLENS FALLS FAIR 70 58 65 S7 30.13S $$ NHZ002-005-011-211400- _____NEW HAMPSHIRE_____ CITY SKY/WX TMP DP RH WIND PRES REMARKS LEBANON FAIR 71 58 63 CALM 30.16S KEENE FAIR 71 61 70 SW8 30.17S MT WASHINGTON MOSUNNY 57 43 58 NE6 N/A PLYMOUTH FAIR 68 56 66 CALM 30.17F WHITEFIELD FAIR 69 58 67 CALM 30.18F $$ _____REGIONAL QUEBEC LOCATIONS_____ CITY SKY/WX TMP DP RH WIND PRES REMARKS MONTREAL MOSUNNY 75 61 60 S7 30.10S QUEBEC CITY MOSUNNY 75 63 64 VRB3 30.14F SHERBROOKE MOSUNNY 72 61 68 E3 30.16F _____REGIONAL ONTARIO LOCATIONS_____ CITY SKY/WX TMP DP RH WIND PRES REMARKS OTTAWA MOSUNNY 75 57 53 SE10 30.07S ______KEY______ VSB - VISIBILITY IN MILES WCI - WIND CHILL INDEX HX - HEAT INDEX $$ NNNN

USA.gov is the U.S. government's official web portal to all federal, state and local government web resources and services.